(°C)
26°
24°
23°
22°
21°
20°
19°
(°C)
24°
24°
23°
22°
21°
19°
18°
WZW
WZW
WZW
ZW
Z
Z
Z
(km/u)
12-19
9-17
8-15
7-14
8-14
9-15
9-18
(mm)
0
0
0
0
0
0
0
(%)
0
0
0
0
0
0
0

Zonverhoging

/ 0.2°
sun-icon
UV 5
05:09
20:54
Afnemende maan (258°)
23:33
12:31

METAR voor 52.53°N 31.02°O (UMGG)

Tijd Voorwaarden Temperatuur/
Dauwpunt
Wind Zicht Weer Wolken Luchtdruk Wijzigen Ruw
VFR 26°C / 12°C 280º 8kt >10km - Clouds and Visibility OK 1008 No Significant change UMGG 301700Z 28004MPS CAVOK 26/12 Q1008 R28/D NOSIG
VFR 27°C / 11°C 280º 10kt >10km - Clouds and Visibility OK 1008 No Significant change UMGG 301630Z 28005MPS CAVOK 27/11 Q1008 R28/CLRD// NOSIG
VFR 27°C / 11°C 290º 12kt Gust 17kt >10km - Clouds and Visibility OK 1008 No Significant change UMGG 301600Z 29006G09MPS CAVOK 27/11 Q1008 R28/CLRD// NOSIG
VFR 29°C / 12°C 280º 12kt Gust 17kt >10km - Clouds and Visibility OK 1008 No Significant change UMGG 301530Z 28006G09MPS CAVOK 29/12 Q1008 R28/CLRD// NOSIG
VFR 29°C / 12°C 300º 12kt Gust 17kt >10km - Clouds and Visibility OK 1008 No Significant change UMGG 301500Z 30006G09MPS CAVOK 29/12 Q1008 R28/D NOSIG
VFR 28°C / 12°C 290º 10kt Gust 16kt >10km - Clouds and Visibility OK 1008 No Significant change UMGG 301430Z 29005G08MPS CAVOK 28/12 Q1008 R28/CLRD// NOSIG
VFR 28°C / 12°C 290º 10kt Gust 16kt >10km - Clouds and Visibility OK 1008 No Significant change UMGG 301400Z 29005G08MPS CAVOK 28/12 Q1008 R28/CLRD// NOSIG
VFR 27°C / 13°C 240º 10kt Gust 16kt >10km - Clouds and Visibility OK 1008 No Significant change UMGG 301330Z 24005G08MPS CAVOK 27/13 Q1008 R28/CLRD// NOSIG
VFR 27°C / 13°C 260º 12kt Gust 17kt >10km - Clouds and Visibility OK 1009 No Significant change UMGG 301300Z 26006G09MPS CAVOK 27/13 Q1009 R28/CLRD// NOSIG
VFR 28°C / 13°C 250º 17kt Gust 25kt >10km - Clouds and Visibility OK 1009 No Significant change UMGG 301230Z 25009G13MPS CAVOK 28/13 Q1009 R28/D NOSIG
VFR 28°C / 13°C 290º 12kt Gust 17kt >10km - Clouds and Visibility OK 1009 No Significant change UMGG 301200Z 29006G09MPS CAVOK 28/13 Q1009 R28/CLRD// NOSIG
VFR 28°C / 14°C 270º 12kt Gust 17kt >10km - Clouds and Visibility OK 1009 No Significant change UMGG 301130Z 27006G09MPS CAVOK 28/14 Q1009 R28/CLRD// NOSIG
VFR 28°C / 14°C 280º 12kt Gust 17kt >10km - Clouds and Visibility OK 1009 No Significant change UMGG 301100Z 28006G09MPS CAVOK 28/14 Q1009 R28/D NOSIG
VFR 27°C / 14°C 270º 12kt Gust 17kt >10km - Scattered Clouds 4600ft 1009 No Significant change UMGG 301030Z 27006G09MPS 9999 SCT046 BKN100 27/14 Q1009 R28/D NOSIG
VFR 27°C / 14°C 280º 14kt Gust 19kt >10km - Broken Clouds 4800ft 1009 No Significant change UMGG 301000Z 28007G10MPS 9999 BKN048 BKN100 27/14 Q1009 R28/D NOSIG
VFR 27°C / 15°C 290º 10kt Gust 16kt >10km - Broken Clouds 4800ft 1009 No Significant change UMGG 300930Z 29005G08MPS 9999 BKN048 BKN100 27/15 Q1009 R28/CLRD// NOSIG
VFR 27°C / 15°C 300º 12kt Gust 17kt >10km - Scattered Clouds 5200ft 1009 No Significant change UMGG 300900Z 30006G09MPS 9999 SCT052 BKN100 27/15 Q1009 R28/CLRD// NOSIG
VFR 25°C / 17°C 300º 12kt >10km - Broken Clouds 3200ft 1009 No Significant change UMGG 300830Z 30006MPS 9999 BKN032 25/17 Q1009 R28/D NOSIG
VFR 25°C / 17°C 290º 8kt >10km - Few Clouds 3000ft 1009 No Significant change UMGG 300800Z 29004MPS 9999 FEW030 25/17 Q1009 R28/CLRD// NOSIG
VFR 23°C / 18°C 290º 6kt >10km - Few Clouds 2000ft 1009 No Significant change UMGG 300730Z 29003MPS 9999 FEW020 23/18 Q1009 R28/CLRD// NOSIG
VFR 23°C / 18°C 290º 6kt >10km - Few Clouds 1500ft 1009 No Significant change UMGG 300700Z 29003MPS 9999 FEW015 23/18 Q1009 R28/D NOSIG
VFR 22°C / 19°C 310º 8kt >10km - Scattered Clouds 1100ft 1009 No Significant change UMGG 300630Z 31004MPS 9999 SCT011 22/19 Q1009 R28/CLRD// NOSIG
VFR 22°C / 19°C 280º 10kt >10km - Scattered Clouds 1300ft 1009 No Significant change UMGG 300600Z 28005MPS 9999 SCT013 22/19 Q1009 R28/D NOSIG
IFR 20°C / 18°C 300º 6kt 8000m - Broken Clouds 600ft 1009 No Significant change UMGG 300530Z 30003MPS 8000 BKN006 20/18 Q1009 R28/CLRD// NOSIG RMK QBB180

VFR

26°C / 12°C

[Meer]
Wind 280º 8kt
Zicht >10km
Weer -
Wolken Clouds and Visibility OK
Luchtdruk 1008
Wijzigen No Significant change
Ruw UMGG 301700Z 28004MPS CAVOK 26/12 Q1008 R28/D NOSIG

VFR

27°C / 11°C

[Meer]
Wind 280º 10kt
Zicht >10km
Weer -
Wolken Clouds and Visibility OK
Luchtdruk 1008
Wijzigen No Significant change
Ruw UMGG 301630Z 28005MPS CAVOK 27/11 Q1008 R28/CLRD// NOSIG

VFR

27°C / 11°C

[Meer]
Wind 290º 12kt Gust 17kt
Zicht >10km
Weer -
Wolken Clouds and Visibility OK
Luchtdruk 1008
Wijzigen No Significant change
Ruw UMGG 301600Z 29006G09MPS CAVOK 27/11 Q1008 R28/CLRD// NOSIG

VFR

29°C / 12°C

[Meer]
Wind 280º 12kt Gust 17kt
Zicht >10km
Weer -
Wolken Clouds and Visibility OK
Luchtdruk 1008
Wijzigen No Significant change
Ruw UMGG 301530Z 28006G09MPS CAVOK 29/12 Q1008 R28/CLRD// NOSIG

VFR

29°C / 12°C

[Meer]
Wind 300º 12kt Gust 17kt
Zicht >10km
Weer -
Wolken Clouds and Visibility OK
Luchtdruk 1008
Wijzigen No Significant change
Ruw UMGG 301500Z 30006G09MPS CAVOK 29/12 Q1008 R28/D NOSIG

VFR

28°C / 12°C

[Meer]
Wind 290º 10kt Gust 16kt
Zicht >10km
Weer -
Wolken Clouds and Visibility OK
Luchtdruk 1008
Wijzigen No Significant change
Ruw UMGG 301430Z 29005G08MPS CAVOK 28/12 Q1008 R28/CLRD// NOSIG

VFR

28°C / 12°C

[Meer]
Wind 290º 10kt Gust 16kt
Zicht >10km
Weer -
Wolken Clouds and Visibility OK
Luchtdruk 1008
Wijzigen No Significant change
Ruw UMGG 301400Z 29005G08MPS CAVOK 28/12 Q1008 R28/CLRD// NOSIG

VFR

27°C / 13°C

[Meer]
Wind 240º 10kt Gust 16kt
Zicht >10km
Weer -
Wolken Clouds and Visibility OK
Luchtdruk 1008
Wijzigen No Significant change
Ruw UMGG 301330Z 24005G08MPS CAVOK 27/13 Q1008 R28/CLRD// NOSIG

VFR

27°C / 13°C

[Meer]
Wind 260º 12kt Gust 17kt
Zicht >10km
Weer -
Wolken Clouds and Visibility OK
Luchtdruk 1009
Wijzigen No Significant change
Ruw UMGG 301300Z 26006G09MPS CAVOK 27/13 Q1009 R28/CLRD// NOSIG

VFR

28°C / 13°C

[Meer]
Wind 250º 17kt Gust 25kt
Zicht >10km
Weer -
Wolken Clouds and Visibility OK
Luchtdruk 1009
Wijzigen No Significant change
Ruw UMGG 301230Z 25009G13MPS CAVOK 28/13 Q1009 R28/D NOSIG

VFR

28°C / 13°C

[Meer]
Wind 290º 12kt Gust 17kt
Zicht >10km
Weer -
Wolken Clouds and Visibility OK
Luchtdruk 1009
Wijzigen No Significant change
Ruw UMGG 301200Z 29006G09MPS CAVOK 28/13 Q1009 R28/CLRD// NOSIG

VFR

28°C / 14°C

[Meer]
Wind 270º 12kt Gust 17kt
Zicht >10km
Weer -
Wolken Clouds and Visibility OK
Luchtdruk 1009
Wijzigen No Significant change
Ruw UMGG 301130Z 27006G09MPS CAVOK 28/14 Q1009 R28/CLRD// NOSIG

VFR

28°C / 14°C

[Meer]
Wind 280º 12kt Gust 17kt
Zicht >10km
Weer -
Wolken Clouds and Visibility OK
Luchtdruk 1009
Wijzigen No Significant change
Ruw UMGG 301100Z 28006G09MPS CAVOK 28/14 Q1009 R28/D NOSIG

VFR

27°C / 14°C

[Meer]
Wind 270º 12kt Gust 17kt
Zicht >10km
Weer -
Wolken Scattered Clouds 4600ft
Luchtdruk 1009
Wijzigen No Significant change
Ruw UMGG 301030Z 27006G09MPS 9999 SCT046 BKN100 27/14 Q1009 R28/D NOSIG

VFR

27°C / 14°C

[Meer]
Wind 280º 14kt Gust 19kt
Zicht >10km
Weer -
Wolken Broken Clouds 4800ft
Luchtdruk 1009
Wijzigen No Significant change
Ruw UMGG 301000Z 28007G10MPS 9999 BKN048 BKN100 27/14 Q1009 R28/D NOSIG

VFR

27°C / 15°C

[Meer]
Wind 290º 10kt Gust 16kt
Zicht >10km
Weer -
Wolken Broken Clouds 4800ft
Luchtdruk 1009
Wijzigen No Significant change
Ruw UMGG 300930Z 29005G08MPS 9999 BKN048 BKN100 27/15 Q1009 R28/CLRD// NOSIG

VFR

27°C / 15°C

[Meer]
Wind 300º 12kt Gust 17kt
Zicht >10km
Weer -
Wolken Scattered Clouds 5200ft
Luchtdruk 1009
Wijzigen No Significant change
Ruw UMGG 300900Z 30006G09MPS 9999 SCT052 BKN100 27/15 Q1009 R28/CLRD// NOSIG

VFR

25°C / 17°C

[Meer]
Wind 300º 12kt
Zicht >10km
Weer -
Wolken Broken Clouds 3200ft
Luchtdruk 1009
Wijzigen No Significant change
Ruw UMGG 300830Z 30006MPS 9999 BKN032 25/17 Q1009 R28/D NOSIG

VFR

25°C / 17°C

[Meer]
Wind 290º 8kt
Zicht >10km
Weer -
Wolken Few Clouds 3000ft
Luchtdruk 1009
Wijzigen No Significant change
Ruw UMGG 300800Z 29004MPS 9999 FEW030 25/17 Q1009 R28/CLRD// NOSIG

VFR

23°C / 18°C

[Meer]
Wind 290º 6kt
Zicht >10km
Weer -
Wolken Few Clouds 2000ft
Luchtdruk 1009
Wijzigen No Significant change
Ruw UMGG 300730Z 29003MPS 9999 FEW020 23/18 Q1009 R28/CLRD// NOSIG

VFR

23°C / 18°C

[Meer]
Wind 290º 6kt
Zicht >10km
Weer -
Wolken Few Clouds 1500ft
Luchtdruk 1009
Wijzigen No Significant change
Ruw UMGG 300700Z 29003MPS 9999 FEW015 23/18 Q1009 R28/D NOSIG

VFR

22°C / 19°C

[Meer]
Wind 310º 8kt
Zicht >10km
Weer -
Wolken Scattered Clouds 1100ft
Luchtdruk 1009
Wijzigen No Significant change
Ruw UMGG 300630Z 31004MPS 9999 SCT011 22/19 Q1009 R28/CLRD// NOSIG

VFR

22°C / 19°C

[Meer]
Wind 280º 10kt
Zicht >10km
Weer -
Wolken Scattered Clouds 1300ft
Luchtdruk 1009
Wijzigen No Significant change
Ruw UMGG 300600Z 28005MPS 9999 SCT013 22/19 Q1009 R28/D NOSIG

IFR

20°C / 18°C

[Meer]
Wind 300º 6kt
Zicht 8000m
Weer -
Wolken Broken Clouds 600ft
Luchtdruk 1009
Wijzigen No Significant change
Ruw UMGG 300530Z 30003MPS 8000 BKN006 20/18 Q1009 R28/CLRD// NOSIG RMK QBB180

TAF voor 52.53°N 31.02°O (UMGG)

From till


Maximum Temperature 29ºC on . Minimum Temperature 17ºC on .
From till Wind 260º 12kt. Visibility 10km or more. Scattered Clouds 2500ft.
Temporarly from till Wind 240º 12kt. Visibility 1200m. Mist . Broken Clouds 300ft.
Temporarly from till Wind 280º 16kt. Gust 25kt.
With 40% probability, Temporarly from till Visibility 3000m. Light Thunderstorm Rain . Broken Clouds 2500ft.

Ruw: TAF UMGG 301657Z 3018/3118 26006MPS 9999 SCT025 TX29/3112Z TN17/3102Z TEMPO 3021/3106 24006MPS 1200 BR BKN003 TEMPO 3106/3118 28008G13MPS PROB40 TEMPO 3110/3118 3000 -TSRA BKN025CB

Huidige satelliet- en regenbeelden voor 52.53°N 31.02°O

De locatiemarkering is geplaatst op 52.53°N 31.02°O. [Meer]

Het realtime satellietbeeld combineert zichtbaar licht overdag met infraroodstraling 's nachts. 's Nachts is het beeld niet donker, omdat infraroodstraling temperatuurverschillen kan waarnemen. Helaas zijn lage wolken en mist moeilijk te onderscheiden van grondtemperaturen en kunnen dus 's nachts bijna onzichtbaar zijn. Meteosat-satellietbeelden voor Europa worden elke 5 minuten in real time bijgewerkt. De beelden van GOES-16/GOES-17 (Noord- en Zuid-Amerika) en Himawari (Azië) worden om de 10 minuten bijgewerkt.

Copyright 2021 EUMETSAT / meteoblue. / Copyright 2021 meteoblue

Radar en neerslag nowcast voor 52.53°N 31.02°O

Motregen
Licht
Matig
Zwaar
Zeer zwaar
Hail

De locatiemarkering wordt geplaatst op 52.53°N 31.02°O. Deze animation toont de neerslag radar van het afgelopen uur, maar ook de 1h verwachting. Motregen en lichte sneeuw zijn niet zichtbaar op de radar. Neerslag intensiteitwordt in een kleurcode weergegeven, variërend van licht blauw tot zwart paars.